User: anonymous   Login
Location: Unspecified
(0.0000°N, 0.0000°E)
Time: 04:54:46
(UTC+00:00)
Language:

Uosat F - Orbit

View from above orbital plane
View from above orbital plane
View from above satellite
View from above satellite

Ground track
Ground track

The orbit data is extracted from the following two-line orbital elements,

1 21575U 91050B   21342.77226597  .00000027  00000-0  22343-4 0  9999
2 21575  98.5585  42.5385 0008455  98.8571 261.3575 14.40988003596814
Epoch (UTC): 08 December 2021 18:32:03
Eccentricity: 0.0008455
inclination: 98.5585°
perigee height: 749 km
apogee height: 761 km
right ascension of ascending node: 42.5385°
argument of perigee: 98.8571°
revolutions per day: 14.40988003
mean anomaly at epoch: 261.3575°
orbit number at epoch: 59681

The dashed part of the orbit path shows where the satellite is in the earth's shadow,  

DLR